Find O3b FM16

NORAD ID: 43232 Int'l Des: 2018-024 Owner: O3BS Country: UK operational
MEOCIRCULAR

实时位置

正在加载3D地球...

关于 O3b FM16

正在加载描述...

即将过境

Passes for default location (London). Set your location on the main map for personalized predictions.

高度历史

Loading altitude history...

两行轨道根数

1 43232U 18024B 26106.77877599 -.00000013 00000-0 00000-0 0 9998
2 43232 0.0480 7.5862 0002673 13.3016 339.1249 5.00115970147874
Epoch: Apr 16, 2026 • Age: 13 hours

当前状态

高度 8066.0 km
速度 5.25 km/s
星下点 -0.04°S, 56.89°W
发射日期 Mar 9, 2018
运行时间 8.1 years
类型 other

技术详情

分类 Payload
质量 700.00 kg
干质量 500.00 kg
总质量 700.00 kg
长度 4.00 m
直径 2.00 m
跨度 12.00 m
形状 Box trap+2 pan
制造商 THALR
平台类型 Prisma
阶段状态 Renamed
所有者/国家 O3BS/UK

Most Searched